Flag for Russia Weather past 2 weeks in Saint-Petersburg, Russia

Now
41 °F

Overcast.


Feels Like: 31 °F
Forecast: 37 / 44 °F
Wind: 24 mph from South

Location: St. Petersburg

Current Time: Mar 31, 2015 at 10:37:22 AM

Latest Report: Mar 31, 2015 at 10:00 AM


Visibility: N/A

Pressure: 29.21 "Hg

Humidity: 81%

Dew point: 36 °F

Location of Saint-PetersburgLocation

Historic Weather in Saint-Petersburg — Graph

°F

Saint-Petersburg temperature yesterday

Maximum temperature yesterday: 36 °F (at 12:30 PM)
Minimum temperature yesterday: 32 °F (at 2:30 AM)
Average temperature yesterday: 34 °F

Past Weeks' High & Low Weather Summary

 TemperatureHumidityPressure
High59 °F (Mar 17, 2:00 PM)100% (Mar 23, 11:30 PM)31.10 "Hg (Mar 23, 11:30 PM)
Low19 °F (Mar 22, 5:30 AM)16% (Mar 18, 2:00 PM)29.21 "Hg (Mar 31, 8:30 AM)
Average36 °F59%30.10 "Hg
* Reported Mar 16 9:00 AM — Mar 31 9:30 AM, Saint-Petersburg, Weather by CustomWeather, © 2015

Note: Actual official high and low records may vary slightly from our data, if they occured in-between our weather recording intervals... More about our weather records

Advertising

Saint-Petersburg weather history for previous 24 hours

 ConditionsComfort  
Time TempWeatherWind HumidityBarometerVisibility
9:30 AM
Tue, Mar 31
39 °FOvercast.26 mph87%29.21 "HgN/A
9:00 AM39 °FOvercast.29 mph81%29.21 "HgN/A
8:30 AM39 °FOvercast.17 mph81%29.21 "HgN/A
8:00 AM39 °FOvercast.15 mph81%29.24 "HgN/A
7:30 AM37 °FMore clouds than sun.17 mph87%29.24 "HgN/A
7:00 AM37 °FMostly cloudy.17 mph87%29.24 "HgN/A
6:30 AM37 °FMostly cloudy.15 mph87%29.24 "HgN/A
5:30 AM36 °FLow clouds.17 mph87%29.24 "HgN/A
5:00 AM36 °FLow clouds.15 mph87%29.24 "HgN/A
4:30 AM36 °FOvercast.15 mph87%29.27 "HgN/A
4:00 AM36 °FMostly cloudy.15 mph87%29.27 "HgN/A
3:30 AM34 °FLight rain. Mostly cloudy.15 mph87%29.27 "HgN/A
3:00 AM34 °FLight rain. Mostly cloudy.15 mph87%29.27 "Hg4 mi
2:30 AM34 °FOvercast.15 mph87%29.30 "HgN/A
2:00 AM34 °FOvercast.13 mph87%29.30 "HgN/A
1:30 AM34 °FMostly cloudy.15 mph87%29.30 "HgN/A
1:00 AM34 °FMostly cloudy.15 mph87%29.30 "HgN/A
12:30 AM34 °FMostly cloudy.15 mph87%29.30 "HgN/A
12:00 AM34 °FMostly cloudy.15 mph87%29.30 "HgN/A
11:30 PM
Mon, Mar 30
34 °FMostly cloudy.17 mph87%29.33 "HgN/A
11:00 PM34 °FMostly cloudy.15 mph81%29.33 "HgN/A
10:30 PM34 °FLight rain. Mostly cloudy.15 mph81%29.33 "HgN/A
10:00 PM34 °FLight rain. Mostly cloudy.17 mph81%29.33 "Hg4 mi
9:30 PM34 °FLight rain. Mostly cloudy.17 mph81%29.33 "HgN/A
9:00 PM34 °FLight rain. Mostly cloudy.15 mph87%29.36 "Hg3 mi
8:30 PM34 °FLight rain. Mostly cloudy.15 mph87%29.36 "Hg4 mi
8:00 PM34 °FLight rain. Mostly cloudy.17 mph81%29.36 "Hg3 mi
7:30 PM34 °FMostly cloudy.20 mph81%29.36 "HgN/A
7:00 PM34 °FMostly cloudy.20 mph87%29.36 "HgN/A
6:30 PM34 °FLight snow. Mostly cloudy.17 mph87%29.36 "Hg3 mi
6:00 PM34 °FLight snow. Mostly cloudy.20 mph87%29.36 "Hg2 mi
5:30 PM34 °FLight snow. Mostly cloudy.20 mph87%29.36 "Hg4 mi
5:00 PM36 °FLight snow. Mostly cloudy.20 mph81%29.39 "HgN/A
4:30 PM36 °FMostly cloudy.20 mph81%29.39 "HgN/A
4:00 PM36 °FMostly cloudy.17 mph75%29.39 "HgN/A
3:30 PM36 °FMostly cloudy.22 mph75%29.39 "HgN/A
3:00 PM36 °FMostly cloudy.20 mph75%29.42 "HgN/A
2:30 PM36 °FLight snow. Mostly cloudy.20 mph75%29.42 "HgN/A
2:00 PM36 °FLight snow. Mostly cloudy.15 mph75%29.42 "HgN/A
1:30 PM36 °FLight snow. Mostly cloudy.17 mph75%29.42 "Hg4 mi
1:00 PM36 °FLight snow. Mostly cloudy.20 mph75%29.45 "Hg4 mi
12:30 PM36 °FLight snow. Mostly cloudy.20 mph81%29.45 "Hg5 mi
12:00 PM34 °FLight snow. Mostly cloudy.20 mph81%29.45 "Hg5 mi
11:30 AM34 °FLight snow. Mostly cloudy.20 mph81%29.47 "HgN/A
11:00 AM34 °FLight snow. Mostly cloudy.20 mph75%29.47 "HgN/A
10:30 AM34 °FLight snow. Mostly cloudy.20 mph75%29.47 "Hg5 mi
10:00 AM34 °FLight snow. Mostly cloudy.20 mph75%29.50 "HgN/A
Weather by CustomWeather, © 2015

See weather overviewHow to use our weather pages